CW3363 Weather Reports


Display with metric or nautical units.
time (UTC)temp
F
wind
direction
speed
MPH
gust
MPH
rain 1hr
in
rain 24hr
in
rain mn
in
humidity
%
barometer
mb
20260507002323 77 318 3.0 10.0 0.00 0.00 0.00 83 1009.5
20260507001829 78 37 4.0 11.0 0.00 0.00 0.00 82 1009.1
20260507001335 80 49 2.0 14.0 0.00 0.00 0.00 83 1009.1
20260507000840 81 324 8.0 14.0 0.00 0.00 0.00 81 1009.1
20260507000328 84 305 0.0 3.0 0.00 0.00 0.00 84 1008.9
20260506235831 84 306 0.0 4.0 0.00 0.00 0.00 84 1008.9
20260506235338 84 306 2.0 4.0 0.00 0.00 0.00 83 1008.9
20260506234824 84 305 0.0 2.0 0.00 0.00 0.00 83 1008.8
20260506234332 84 306 1.0 2.0 0.00 0.00 0.00 83 1008.8
20260506233839 84 306 0.0 2.0 0.00 0.00 0.00 83 1008.8
20260506233329 84 306 0.0 2.0 0.00 0.00 0.00 83 1008.6
20260506232835 84 306 0.0 2.0 0.00 0.00 0.00 83 1008.6
20260506232359 84 306 0.0 4.0 0.00 0.00 0.00 83 1008.6
20260506231846 84 306 0.0 4.0 0.00 0.00 0.00 83 1008.6
20260506231330 84 340 1.0 5.0 0.00 0.00 0.00 83 1008.6
20260506230835 84 351 1.0 5.0 0.00 0.00 0.00 82 1008.6
20260506230340 84 314 2.0 4.0 0.00 0.00 0.00 82 1008.6
20260506225843 84 312 1.0 4.0 0.00 0.00 0.00 82 1008.6
20260506225331 84 319 2.0 4.0 0.00 0.00 0.00 82 1008.6
20260506224837 85 324 1.0 4.0 0.00 0.00 0.00 82 1008.6
20260506224343 85 321 2.0 4.0 0.00 0.00 0.00 82 1008.6
20260506223829 85 316 3.0 3.0 0.00 0.00 0.00 81 1008.6
20260506223335 86 315 1.0 4.0 0.00 0.00 0.00 80 1008.5
20260506222902 86 311 2.0 4.0 0.00 0.00 0.00 78 1008.5
20260506222326 86 199 1.0 3.0 0.00 0.00 0.00 77 1008.5
20260506221836 86 185 0.0 2.0 0.00 0.00 0.00 77 1008.4
20260506221322 86 185 0.0 4.0 0.00 0.00 0.00 77 1008.4
20260506220826 86 185 3.0 4.0 0.00 0.00 0.00 75 1008.4
20260506220332 86 247 1.0 4.0 0.00 0.00 0.00 76 1008.4
20260506215856 87 253 1.0 4.0 0.00 0.00 0.00 75 1008.4
20260506215321 87 295 2.0 4.0 0.00 0.00 0.00 75 1008.4
20260506214849 87 259 1.0 5.0 0.00 0.00 0.00 76 1008.5
20260506214333 87 250 1.0 5.0 0.00 0.00 0.00 75 1008.5
20260506213819 87 247 0.0 3.0 0.00 0.00 0.00 76 1008.5
20260506213327 86 241 0.0 4.0 0.00 0.00 0.00 78 1008.6
20260506212836 86 270 2.0 5.0 0.00 0.00 0.00 76 1008.6
20260506212342 86 237 2.0 5.0 0.00 0.00 0.00 76 1008.6
20260506211828 87 184 3.0 7.0 0.00 0.00 0.00 75 1008.6
20260506211334 87 197 3.0 7.0 0.00 0.00 0.00 76 1008.6
20260506210822 87 172 2.0 11.0 0.00 0.00 0.00 75 1008.6
20260506210326 87 222 4.0 11.0 0.00 0.00 0.00 74 1008.6
20260506205828 88 213 0.0 6.0 0.00 0.00 0.00 72 1008.6
20260506205337 88 155 2.0 6.0 0.00 0.00 0.00 72 1008.6
20260506204823 87 157 0.0 4.0 0.00 0.00 0.00 76 1009.0
20260506204331 86 165 1.0 3.0 0.00 0.00 0.00 76 1009.0
20260506203837 86 155 1.0 3.0 0.00 0.00 0.00 76 1009.0
20260506203401 86 247 1.0 3.0 0.00 0.00 0.00 78 1009.1
20260506202826 85 247 1.0 4.0 0.00 0.00 0.00 78 1009.1
20260506202331 85 127 1.0 4.0 0.00 0.00 0.00 78 1009.1
20260506201835 85 182 2.0 4.0 0.00 0.00 0.00 77 1009.1
20260506201326 86 187 3.0 4.0 0.00 0.00 0.00 77 1009.1
20260506200831 86 128 2.0 4.0 0.00 0.00 0.00 76 1009.1
20260506200335 86 336 1.0 5.0 0.00 0.00 0.00 77 1009.1
20260506195822 86 159 3.0 7.0 0.00 0.00 0.00 76 1009.1
20260506195326 85 172 3.0 7.0 0.00 0.00 0.00 76 1009.1
20260506194830 85 209 3.0 8.0 0.00 0.00 0.00 77 1009.2
20260506194335 85 143 5.0 8.0 0.00 0.00 0.00 77 1009.2
20260506193900 86 196 2.0 6.0 0.00 0.00 0.00 78 1009.2
20260506193324 86 195 3.0 5.0 0.00 0.00 0.00 77 1009.4
20260506192831 86 187 3.0 8.0 0.00 0.00 0.00 75 1009.4
20260506192336 87 138 3.0 6.0 0.00 0.00 0.00 76 1009.4
20260506191821 87 217 3.0 9.0 0.00 0.00 0.00 75 1009.7
20260506191326 86 184 3.0 9.0 0.00 0.00 0.00 76 1009.7
20260506190836 85 203 2.0 6.0 0.00 0.00 0.00 80 1009.7
20260506190322 85 190 0.0 7.0 0.00 0.00 0.00 79 1009.9
20260506185825 84 177 5.0 7.0 0.00 0.00 0.00 80 1009.9
20260506185332 84 138 4.0 8.0 0.00 0.00 0.00 81 1009.9
20260506184837 84 132 6.0 8.0 0.00 0.00 0.00 80 1010.0
20260506184320 85 246 1.0 6.0 0.00 0.00 0.00 79 1010.0
20260506183848 85 189 4.0 6.0 0.00 0.00 0.00 78 1010.0
20260506183354 85 204 2.0 9.0 0.00 0.00 0.00 78 1010.2
20260506182857 85 176 5.0 9.0 0.00 0.00 0.00 78 1010.2
20260506182400 85 183 1.0 6.0 0.00 0.00 0.00 79 1010.2
20260506181823 84 213 4.0 6.0 0.00 0.00 0.00 80 1010.5
20260506181328 84 289 1.0 4.0 0.00 0.00 0.00 80 1010.5
20260506180834 84 175 1.0 4.0 0.00 0.00 0.00 81 1010.5
20260506180324 83 149 2.0 7.0 0.00 0.00 0.00 82 1010.8
20260506175828 83 144 5.0 7.0 0.00 0.00 0.00 82 1010.8
20260506175338 83 157 1.0 5.0 0.00 0.00 0.00 82 1010.8
20260506174823 82 189 0.0 5.0 0.00 0.00 0.00 83 1011.2
20260506174329 82 140 3.0 5.0 0.00 0.00 0.00 84 1011.2
20260506173834 82 158 2.0 5.0 0.00 0.00 0.00 84 1011.2
20260506173339 82 141 2.0 7.0 0.00 0.00 0.00 84 1011.2
20260506172825 82 144 5.0 7.0 0.00 0.00 0.00 83 1011.2
20260506172330 82 133 4.0 6.0 0.00 0.00 0.00 83 1011.2
20260506171834 82 153 3.0 5.0 0.00 0.00 0.00 83 1011.4
20260506171339 82 180 0.0 3.0 0.00 0.00 0.00 84 1011.4
20260506170826 82 189 1.0 5.0 0.00 0.00 0.00 84 1011.4
20260506170352 81 189 2.0 5.0 0.00 0.00 0.00 84 1011.2
20260506165834 81 172 3.0 6.0 0.00 0.00 0.00 85 1011.2
20260506165322 81 131 3.0 9.0 0.00 0.00 0.00 85 1011.2
20260506164831 81 127 5.0 9.0 0.00 0.00 0.00 84 1011.2
20260506164337 81 181 3.0 9.0 0.00 0.00 0.00 85 1011.2
20260506163902 81 150 5.0 7.0 0.00 0.00 0.00 85 1011.2
20260506163327 81 173 3.0 7.0 0.00 0.00 0.00 85 1011.2
20260506162835 81 132 4.0 8.0 0.00 0.00 0.00 84 1011.2
20260506162343 81 195 3.0 8.0 0.00 0.00 0.00 85 1011.2
20260506161828 81 123 5.0 7.0 0.00 0.00 0.00 85 1010.7
20260506161334 81 132 4.0 6.0 0.00 0.00 0.00 85 1010.7
20260506160821 81 132 2.0 7.0 0.00 0.00 0.00 85 1010.7
20260506160329 81 144 4.0 7.0 0.00 0.00 0.00 85 1010.7
20260506155823 81 184 3.0 6.0 0.00 0.00 0.00 85 1010.7
20260506155327 81 198 3.0 6.0 0.00 0.00 0.00 86 1010.7
20260506154833 81 176 2.0 7.0 0.00 0.00 0.00 86 1010.7
20260506154338 80 170 3.0 7.0 0.00 0.00 0.00 85 1010.7
20260506153841 81 127 3.0 5.0 0.00 0.00 0.00 85 1010.7
20260506153326 81 134 1.0 6.0 0.00 0.00 0.00 85 1010.7
20260506152830 80 190 3.0 6.0 0.00 0.00 0.00 86 1010.7
20260506152335 80 140 2.0 6.0 0.00 0.00 0.00 86 1010.7
20260506151843 80 136 4.0 8.0 0.00 0.00 0.00 85 1010.3
20260506151327 80 142 5.0 8.0 0.00 0.00 0.00 86 1010.3
20260506150834 81 127 4.0 7.0 0.00 0.00 0.00 86 1010.3
20260506150339 80 137 3.0 7.0 0.00 0.00 0.00 86 1010.2
20260506145826 80 131 5.0 8.0 0.00 0.00 0.00 87 1010.2
20260506145331 80 120 3.0 8.0 0.00 0.00 0.00 87 1010.2
20260506144836 80 141 6.0 8.0 0.00 0.00 0.00 87 1010.0
20260506144341 80 149 5.0 7.0 0.00 0.00 0.00 88 1010.0
20260506143826 79 208 3.0 7.0 0.00 0.00 0.00 89 1010.0
20260506143331 79 154 4.0 10.0 0.00 0.00 0.00 89 1009.9
20260506142835 79 113 4.0 12.0 0.00 0.00 0.00 89 1009.9
20260506142324 79 129 5.0 12.0 0.00 0.00 0.00 90 1009.9
20260506141830 79 139 3.0 7.0 0.00 0.00 0.00 90 1010.0
20260506141335 78 119 2.0 10.0 0.00 0.00 0.00 91 1010.0
20260506140823 78 199 5.0 10.0 0.00 0.00 0.00 91 1010.0
20260506140328 78 139 6.0 9.0 0.00 0.00 0.00 91 1010.1
20260506135832 78 97 2.0 6.0 0.00 0.00 0.00 92 1010.1
20260506135338 78 148 2.0 6.0 0.00 0.00 0.00 92 1010.1
20260506134823 78 151 3.0 6.0 0.00 0.00 0.00 92 1010.1
20260506134328 77 129 3.0 6.0 0.00 0.00 0.00 93 1010.1
20260506133834 77 116 4.0 7.0 0.00 0.00 0.00 93 1010.1
20260506133400 77 155 4.0 7.0 0.00 0.00 0.00 93 1010.2
20260506132826 77 134 4.0 8.0 0.00 0.00 0.00 93 1010.2
20260506132332 77 134 4.0 8.0 0.00 0.00 0.00 93 1010.2
20260506131839 77 137 4.0 8.0 0.00 0.00 0.00 93 1010.2
20260506131326 77 150 3.0 9.0 0.00 0.00 0.00 93 1010.2
20260506130852 77 188 3.0 9.0 0.00 0.00 0.00 93 1010.2
20260506130337 77 134 2.0 6.0 0.00 0.00 0.00 93 1010.2
20260506125901 77 170 4.0 9.0 0.00 0.00 0.00 94 1010.2
20260506125325 77 158 3.0 9.0 0.00 0.00 0.00 94 1010.2
20260506124829 77 191 2.0 6.0 0.00 0.00 0.00 94 1010.1
20260506124357 76 160 3.0 6.0 0.00 0.00 0.00 94 1010.1
20260506123823 76 154 2.0 6.0 0.00 0.00 0.00 94 1010.1
20260506123329 76 177 3.0 4.0 0.00 0.00 0.00 94 1010.0
20260506122838 76 191 2.0 5.0 0.00 0.00 0.00 95 1010.0
20260506122325 76 167 2.0 5.0 0.00 0.00 0.00 95 1010.0
20260506121852 76 191 2.0 5.0 0.00 0.00 0.00 95 1009.9
20260506121337 76 143 2.0 5.0 0.00 0.00 0.00 95 1009.9
20260506120827 76 134 2.0 4.0 0.00 0.00 0.00 95 1009.9
20260506120336 76 121 2.0 4.0 0.00 0.00 0.00 95 1009.7
20260506115825 76 136 2.0 5.0 0.00 0.00 0.00 95 1009.7
20260506115330 76 189 2.0 5.0 0.00 0.00 0.00 95 1009.7
20260506114839 75 143 2.0 4.0 0.00 0.00 0.00 95 1009.5
20260506114325 75 194 2.0 3.0 0.00 0.00 0.00 95 1009.5
20260506113832 75 194 1.0 3.0 0.00 0.00 0.00 95 1009.5
20260506113337 75 156 1.0 2.0 0.00 0.00 0.00 95 1009.2
20260506112823 75 156 1.0 3.0 0.00 0.00 0.00 95 1009.2
20260506112329 75 156 2.0 4.0 0.00 0.00 0.00 95 1009.2
20260506111837 75 127 2.0 5.0 0.00 0.00 0.00 94 1008.9
20260506111325 75 196 3.0 5.0 0.00 0.00 0.00 94 1008.9
20260506110855 75 140 3.0 5.0 0.00 0.00 0.00 94 1008.9
20260506110339 75 166 3.0 7.0 0.00 0.00 0.00 94 1008.8
20260506105824 75 146 4.0 7.0 0.00 0.00 0.00 94 1008.8
20260506105350 75 198 2.0 4.0 0.00 0.00 0.00 94 1008.8
20260506104835 75 146 2.0 4.0 0.00 0.00 0.00 94 1008.8
20260506104321 75 187 2.0 4.0 0.00 0.00 0.00 93 1008.8
20260506103848 75 137 2.0 4.0 0.00 0.00 0.00 93 1008.8
20260506103333 75 162 3.0 6.0 0.00 0.00 0.00 93 1008.7
20260506102838 75 182 3.0 6.0 0.00 0.00 0.00 93 1008.7
20260506102324 76 163 2.0 5.0 0.00 0.00 0.00 93 1008.7
20260506101832 76 183 4.0 5.0 0.00 0.00 0.00 93 1008.9
20260506101322 76 168 2.0 5.0 0.00 0.00 0.00 93 1008.9
20260506100827 76 179 2.0 6.0 0.00 0.00 0.00 93 1008.9
20260506100336 76 185 3.0 6.0 0.00 0.00 0.00 93 1008.6
20260506095840 76 186 2.0 7.0 0.00 0.00 0.00 92 1008.6
20260506095344 76 156 4.0 7.0 0.00 0.00 0.00 92 1008.6
20260506094831 76 169 3.0 11.0 0.00 0.00 0.00 92 1008.4
20260506094355 76 198 5.0 11.0 0.00 0.00 0.00 92 1008.4
20260506093839 76 185 5.0 9.0 0.00 0.00 0.00 92 1008.4
20260506093345 76 163 1.0 6.0 0.00 0.00 0.00 92 1008.5
20260506092828 76 177 4.0 8.0 0.00 0.00 0.00 92 1008.5
20260506092337 76 190 5.0 10.0 0.00 0.00 0.00 92 1008.5
20260506091840 76 164 5.0 10.0 0.00 0.00 0.00 92 1008.5
20260506091325 77 153 3.0 8.0 0.00 0.00 0.00 91 1008.5
20260506090836 77 162 4.0 9.0 0.00 0.00 0.00 91 1008.5
20260506090341 77 198 6.0 9.0 0.00 0.00 0.00 91 1008.6
20260506085822 77 130 5.0 12.0 0.00 0.00 0.00 91 1008.6
20260506085331 77 179 4.0 12.0 0.00 0.00 0.00 91 1008.6
20260506084836 77 131 4.0 10.0 0.00 0.00 0.00 91 1008.6
20260506084323 77 209 5.0 12.0 0.00 0.00 0.00 91 1008.6
20260506083830 77 140 3.0 12.0 0.00 0.00 0.00 91 1008.6
20260506083338 77 170 4.0 9.0 0.00 0.00 0.00 91 1008.7
20260506082823 77 144 4.0 10.0 0.00 0.00 0.00 91 1008.7
20260506082330 77 154 4.0 10.0 0.00 0.00 0.00 91 1008.7
20260506081821 77 138 4.0 9.0 0.00 0.00 0.00 91 1009.0
20260506081326 77 199 2.0 9.0 0.00 0.00 0.00 91 1009.0
20260506080833 77 140 3.0 7.0 0.00 0.00 0.00 91 1009.0
20260506080337 77 194 4.0 7.0 0.00 0.00 0.00 91 1009.1
20260506073325 77 172 3.0 5.0 0.00 0.00 0.00 91 1009.5
20260506072833 77 142 2.0 5.0 0.00 0.00 0.00 91 1009.5
20260506072322 77 166 3.0 7.0 0.00 0.00 0.00 91 1009.5
20260506071828 77 176 5.0 10.0 0.00 0.00 0.00 91 1009.6
20260506071334 77 154 5.0 10.0 0.00 0.00 0.00 91 1009.6
20260506070841 77 167 5.0 9.0 0.00 0.00 0.00 91 1009.6
20260506070325 77 167 4.0 8.0 0.00 0.00 0.00 91 1009.6
20260506062333 77 153 5.0 10.0 0.00 0.00 0.00 90 1009.6
20260506061841 77 137 4.0 9.0 0.00 0.00 0.00 90 1009.7
20260506061326 77 197 4.0 10.0 0.00 0.00 0.00 90 1009.7
20260506060833 77 149 4.0 11.0 0.00 0.00 0.00 90 1009.7
20260506060319 77 115 4.0 9.0 0.00 0.00 0.00 90 1009.7
20260506051331 77 143 5.0 10.0 0.00 0.00 0.00 89 1009.7
20260506050835 77 136 4.0 12.0 0.00 0.00 0.00 89 1009.7
20260506050340 77 126 8.0 12.0 0.00 0.00 0.00 89 1009.6
20260506044835 78 207 6.0 12.0 0.00 0.00 0.00 89 1009.7
20260506044340 78 171 6.0 12.0 0.00 0.00 0.00 89 1009.7
20260506043824 78 182 5.0 12.0 0.00 0.00 0.00 88 1009.7
20260506043329 78 143 6.0 12.0 0.00 0.00 0.00 88 1009.7
20260506042854 78 156 5.0 13.0 0.00 0.00 0.00 88 1009.7
20260506042323 78 137 3.0 13.0 0.00 0.00 0.00 87 1009.7
20260506041829 78 177 6.0 13.0 0.00 0.00 0.00 87 1009.6
20260506041333 78 167 4.0 11.0 0.00 0.00 0.00 87 1009.6
20260506040838 78 164 4.0 11.0 0.00 0.00 0.00 87 1009.6
20260506040324 78 153 8.0 11.0 0.00 0.00 0.00 87 1009.2
20260506035828 78 191 3.0 11.0 0.00 0.00 0.00 87 1009.2
20260506035336 78 163 4.0 11.0 0.00 0.00 0.00 87 1009.2
20260506034902 78 141 6.0 10.0 0.00 0.00 0.00 86 1009.3
20260506034325 78 179 4.0 10.0 0.00 0.00 0.00 86 1009.3
20260506033829 78 184 5.0 10.0 0.00 0.00 0.00 86 1009.3
20260506033334 78 199 6.0 10.0 0.00 0.00 0.00 86 1009.1
20260506032822 79 137 4.0 8.0 0.00 0.00 0.00 86 1009.1
20260506032327 79 180 4.0 13.0 0.00 0.00 0.00 86 1009.1
20260506031831 79 137 5.0 13.0 0.00 0.00 0.00 86 1008.8
20260506031335 79 184 5.0 12.0 0.00 0.00 0.00 86 1008.8
20260506030840 79 133 4.0 12.0 0.00 0.00 0.00 86 1008.8
20260506030323 79 140 7.0 12.0 0.00 0.00 0.00 86 1008.7
20260506025827 79 169 5.0 12.0 0.00 0.00 0.00 86 1008.7
20260506025331 79 198 3.0 12.0 0.00 0.00 0.00 86 1008.7
20260506024836 79 147 7.0 10.0 0.00 0.00 0.00 86 1008.5
20260506024343 79 195 4.0 15.0 0.00 0.00 0.00 85 1008.5
20260506023827 79 188 9.0 15.0 0.00 0.00 0.00 85 1008.5
20260506023352 79 200 5.0 11.0 0.00 0.00 0.00 85 1008.2
20260506022835 79 179 6.0 11.0 0.00 0.00 0.00 85 1008.2
20260506022341 79 141 6.0 13.0 0.00 0.00 0.00 85 1008.2
20260506021828 79 132 6.0 13.0 0.00 0.00 0.00 85 1008.2
20260506021332 79 138 7.0 13.0 0.00 0.00 0.00 84 1008.2
20260506020840 79 194 5.0 14.0 0.00 0.00 0.00 84 1008.2
20260506020324 79 196 6.0 14.0 0.00 0.00 0.00 84 1008.1
20260506015832 80 192 7.0 11.0 0.00 0.00 0.00 83 1008.1
20260506015336 80 193 4.0 7.0 0.00 0.00 0.00 83 1008.1
20260506014842 80 138 5.0 10.0 0.00 0.00 0.00 83 1007.9
20260506014327 80 125 4.0 11.0 0.00 0.00 0.00 83 1007.9
20260506013853 80 161 4.0 11.0 0.00 0.00 0.00 83 1007.9
20260506013337 80 146 7.0 11.0 0.00 0.00 0.00 83 1007.5
20260506012821 80 151 9.0 11.0 0.00 0.00 0.00 83 1007.5
20260506012328 80 151 6.0 14.0 0.00 0.00 0.00 83 1007.5
20260506011837 80 140 7.0 14.0 0.00 0.00 0.00 82 1007.4
20260506011341 80 177 5.0 10.0 0.00 0.00 0.00 82 1007.4
20260506010825 80 183 4.0 11.0 0.00 0.00 0.00 82 1007.4
20260506010331 80 177 7.0 13.0 0.00 0.00 0.00 82 1007.2
20260506005854 80 134 5.0 13.0 0.00 0.00 0.00 81 1007.2
20260506005339 80 175 3.0 11.0 0.00 0.00 0.00 81 1007.2
20260506004822 80 168 5.0 11.0 0.00 0.00 0.00 81 1007.1
20260506004327 81 154 5.0 11.0 0.00 0.00 0.00 81 1007.1
20260506003831 81 189 5.0 11.0 0.00 0.00 0.00 80 1007.1
20260506003333 81 146 5.0 12.0 0.00 0.00 0.00 80 1007.1
20260506002837 81 149 6.0 12.0 0.00 0.00 0.00 80 1007.1